Weather in Gavrilovo

Russia / Kaliningrad Oblast     54°23′45″N   22°14′20″E
В апреле 2022 года жителям России запретили посещать сайт meteo.paraplan.net по решению Генеральной прокуратуры. Аудитория сайта уменьшилась в 10 раз. Владельцы сайта не видят смысла в поддержке погодного сервера в таких условиях. Сайт будет закрыт в октябре.
temp.,
°C
wind,
m/s
gust,
m/s
humid.,
%
clouds,
%
prec.,
mm/h
press.,
hPa
HPBL,
m
25 september, sun
sun2523:00+7wsw11875 0.0 101610
02:00+7ssw1188100 0.0 101610
05:00+7ssw118897 0.0 101510
08:00+10sw1180100 0.0 101555
11:00+14wsw126197 0.0 1014583
14:00+16wsw1250100 0.1 10121476
17:00+15w1157100 0.1 101111
20:00+11se1165100 0.1 101111
26 september, mon
mon2623:00+9sse336694 0.0 101045
02:00+11s356699 0.0 1008120
05:00+9s357554 0.0 100782
08:00+10s477456 0.0 1007202
11:00+14ssw456098 0.0 1007524
14:00+14w1166100 0.0 100648
17:00+15s2467100 0.1 1005114
20:00+12sse3475100 0.1 100656
27 september, tue
tue2723:00+12s347886 0.1 100682
02:00+11s118496 0.1 100411
05:00+10se118783 0.0 100411
08:00+11se248393 0.0 1003139
11:00+16se456778 0.0 1003723
14:00+17ese4466100 1.0 10011038
17:00+15ese3776100 1.6 1001249
20:00+12ese3685100 1.6 1001129
28 september, wed
wed2823:00+11e2492100 0.4 1000109
02:00+11ne2499100 5.9 998210
05:00+11ne3598100 6.3 997275
08:00+10nne2398100 10.6 996250
11:00+11nnw0195100 0.5 995267
14:00+11wsw61093100 0.7 996717
17:00+10wsw61291100 0.5 997713
20:00+8ssw389364 0.6 999159
29 september, thu
thu2923:00+8s410885 0.0 1000205
02:00+9s5118396 0.1 1001333
05:00+8s41092100 1.1 1002427
08:00+9ssw611905 1.3 1003560
11:00+13ssw687045 0.0 10041155
14:00+14ssw695573 0.1 10051835
17:00+13s486199 0.0 1005284
20:00+10s377699 0.1 1007122